START_TIME,STEP,MOV.,M6,t_acc.,M7,t_acc.,M19,t_acc.,H36,t_acc.
1986-01-25 21:00:28.460 ,5,0,0.,12.0,0.,12.0,0.,12.0,0.,12.0
1986-01-25 21:00:40.460 ,5,0,0.,12.0,0.,12.0,0.,12.0,0.,12.0
1986-01-25 21:00:52.460 ,4,1,0.,12.0,0.,12.0,0.,12.0,0.,12.0
1986-01-25 21:01:04.460 ,4,1,0.,12.0,0.,12.0,0.,12.0,0.,12.0
1986-01-25 21:01:16.460 ,4,0,0.,12.0,0.,12.0,0.,12.0,0.,12.0
1986-01-25 21:01:28.460 ,4,0,0.,12.0,0.,12.0,0.,12.0,0.,12.0
1986-01-25 21:01:40.460 ,3,1,0.,12.0,0.,12.0,0.,12.0,0.,12.0
1986-01-25 21:01:52.460 ,3,1,0.,12.0,0.,12.0,0.,12.0,0.,12.0
1986-01-25 21:02:04.460 ,3,0,0.,12.0,0.,12.0,0.,12.0,0.,12.0
1986-01-25 21:02:16.460 ,3,0,0.,12.0,0.,12.0,0.,12.0,0.,12.0
1986-01-25 21:02:28.460 ,2,1,0.,12.0,0.,12.0,0.,12.0,0.,12.0
1986-01-25 21:02:40.460 ,2,1,0.,12.0,0.,12.0,0.,12.0,0.,12.0
1986-01-25 21:02:52.460 ,2,0,0.,12.0,0.,12.0,0.,12.0,0.,12.0
1986-01-25 21:03:04.460 ,2,0,0.,12.0,0.,12.0,0.,12.0,0.,12.0
1986-01-25 21:03:16.460 ,1,1,0.,12.0,0.,12.0,0.,12.0,0.,12.0
1986-01-25 21:03:28.460 ,1,1,0.,12.0,0.,12.0,0.,12.0,0.,12.0
1986-01-25 21:03:40.460 ,1,0,0.,12.0,0.,12.0,0.,12.0,0.,12.0
1986-01-25 21:03:52.460 ,1,0,0.,12.0,0.,12.0,0.,12.0,0.,12.0
1986-01-25 21:04:04.460 ,0,1,0.,12.0,0.,12.0,0.,12.0,0.,12.0
1986-01-25 21:04:16.460 ,0,1,0.,12.0,0.,12.0,0.,12.0,0.,12.0
1986-01-25 21:04:28.460 ,0,0,0.,12.0,0.,12.0,0.,12.0,0.,12.0
1986-01-25 21:04:40.460 ,0,0,0.,12.0,0.,12.0,0.,12.0,0.,12.0
1986-01-25 21:04:52.450 ,0,1,0.,12.0,0.,12.0,0.,12.0,0.,12.0
1986-01-25 21:05:04.450 ,0,1,0.,12.0,0.,12.0,0.,12.0,0.,12.0
1986-01-25 21:05:16.450 ,0,0,0.,12.0,0.,12.0,0.,12.0,0.,12.0
1986-01-25 21:05:28.450 ,0,0,0.,12.0,0.,12.0,0.,12.0,0.,12.0
1986-01-25 21:05:40.450 ,1,1,0.,12.0,0.,12.0,0.,12.0,0.,12.0
1986-01-25 21:05:52.450 ,1,1,0.,12.0,0.,12.0,0.,12.0,0.,12.0
1986-01-25 21:06:04.450 ,1,0,0.,12.0,0.,12.0,0.,12.0,0.,12.0
1986-01-25 21:06:16.450 ,1,0,0.,12.0,0.,12.0,0.,12.0,0.,12.0
1986-01-25 21:06:28.450 ,2,1,0.,12.0,0.,12.0,0.,12.0,0.,12.0
1986-01-25 21:06:40.450 ,2,1,0.,12.0,0.,12.0,0.,12.0,0.,12.0
1986-01-25 21:06:52.450 ,2,0,0.,12.0,0.,12.0,0.,12.0,0.,12.0
1986-01-25 21:07:04.450 ,2,0,0.,12.0,0.,12.0,0.,12.0,0.,12.0
1986-01-25 21:07:16.450 ,3,1,0.,12.0,0.,12.0,0.,12.0,0.,12.0
1986-01-25 21:07:28.450 ,3,1,0.,12.0,0.,12.0,0.,12.0,0.,12.0
1986-01-25 21:07:40.450 ,3,0,0.,12.0,0.,12.0,0.,12.0,0.,12.0
1986-01-25 21:07:52.450 ,3,0,0.,12.0,0.,12.0,0.,12.0,0.,12.0
1986-01-25 21:08:04.450 ,4,1,0.,12.0,0.,12.0,0.,12.0,0.,12.0
1986-01-25 21:08:16.450 ,4,1,0.,12.0,0.,12.0,0.,12.0,0.,12.0
1986-01-25 21:08:28.450 ,4,0,0.,12.0,0.,12.0,0.,12.0,0.,12.0
1986-01-25 21:08:40.450 ,4,0,0.,12.0,0.,12.0,0.,12.0,0.,12.0
1986-01-25 21:08:52.450 ,5,1,0.,12.0,0.,12.0,0.,12.0,0.,12.0
1986-01-25 21:09:04.450 ,5,1,0.,12.0,0.,12.0,0.,12.0,0.,12.0
1986-01-25 21:09:16.450 ,5,0,0.,12.0,0.,12.0,0.,12.0,0.,12.0
1986-01-25 21:09:28.450 ,5,0,0.,12.0,0.,12.0,0.,12.0,0.,12.0
1986-01-25 21:09:40.450 ,6,1,0.,12.0,0.,12.0,0.,12.0,0.,12.0
1986-01-25 21:09:52.450 ,6,1,0.,12.0,0.,12.0,0.,12.0,0.,12.0
1986-01-25 21:10:04.450 ,6,0,0.,12.0,0.,12.0,0.,12.0,0.,12.0
1986-01-25 21:10:16.450 ,6,0,0.,12.0,0.,12.0,0.,12.0,0.,12.0
1986-01-25 21:10:28.450 ,7,1,0.,12.0,0.,12.0,0.,12.0,0.,12.0
1986-01-25 21:10:40.450 ,7,1,0.,12.0,0.,12.0,0.,12.0,0.,12.0
1986-01-25 21:10:52.450 ,7,0,0.,12.0,0.,12.0,0.,12.0,0.,12.0
1986-01-25 21:11:04.450 ,7,0,0.,12.0,0.,12.0,0.,12.0,0.,12.0
1986-01-25 21:11:16.450 ,7,1,0.,12.0,0.,12.0,0.,12.0,0.,12.0
1986-01-25 21:11:28.450 ,7,1,0.,12.0,0.,12.0,0.,12.0,0.,12.0
1986-01-25 21:11:40.450 ,7,0,0.,12.0,0.,12.0,0.,12.0,0.,12.0
1986-01-25 21:11:52.450 ,7,0,0.,12.0,0.,12.0,0.,12.0,0.,12.0
1986-01-25 21:12:04.450 ,6,1,0.,12.0,0.,12.0,0.,12.0,0.,12.0
1986-01-25 21:12:16.450 ,6,1,0.,12.0,0.,12.0,0.,12.0,0.,12.0
1986-01-25 21:12:28.450 ,6,0,0.,12.0,0.,12.0,0.,12.0,0.,12.0
1986-01-25 21:12:40.450 ,6,0,0.,12.0,0.,12.0,0.,12.0,0.,12.0
1986-01-25 21:12:52.450 ,5,1,0.,12.0,0.,12.0,0.,12.0,0.,12.0
1986-01-25 21:13:04.450 ,5,1,0.,12.0,0.,12.0,0.,12.0,0.,12.0
1986-01-25 21:13:16.450 ,5,0,0.,12.0,0.,12.0,0.,12.0,0.,12.0
1986-01-25 21:13:28.450 ,5,0,0.,12.0,0.,12.0,0.,12.0,0.,12.0
1986-01-25 21:13:40.450 ,4,1,0.,12.0,0.,12.0,0.,12.0,0.,12.0
1986-01-25 21:13:52.450 ,4,1,0.,12.0,0.,12.0,0.,12.0,0.,12.0
1986-01-25 21:14:04.450 ,4,0,0.,12.0,0.,12.0,0.,12.0,0.,12.0
1986-01-25 21:14:16.450 ,4,0,0.,12.0,0.,12.0,0.,12.0,0.,12.0
1986-01-25 21:14:28.450 ,3,1,0.,12.0,0.,12.0,0.,12.0,0.,12.0
1986-01-25 21:14:40.450 ,3,1,0.,12.0,0.,12.0,0.,12.0,0.,12.0
1986-01-25 21:14:52.450 ,3,0,0.,12.0,0.,12.0,0.,12.0,0.,12.0
1986-01-25 21:15:04.450 ,3,0,0.,12.0,0.,12.0,0.,12.0,0.,12.0
1986-01-25 21:15:16.450 ,2,1,0.,12.0,0.,12.0,0.,12.0,0.,12.0
1986-01-25 21:15:28.450 ,2,1,0.,12.0,0.,12.0,0.,12.0,0.,12.0
1986-01-25 21:15:40.450 ,2,0,0.,12.0,0.,12.0,0.,12.0,0.,12.0
1986-01-25 21:15:52.450 ,2,0,0.,12.0,0.,12.0,0.,12.0,0.,12.0
1986-01-25 21:16:04.450 ,1,1,0.,12.0,0.,12.0,0.,12.0,0.,12.0
1986-01-25 21:16:16.450 ,1,1,0.,12.0,0.,12.0,0.,12.0,0.,12.0
1986-01-25 21:16:28.450 ,1,0,0.,12.0,0.,12.0,0.,12.0,0.,12.0
1986-01-25 21:16:40.450 ,1,0,0.,12.0,0.,12.0,0.,12.0,0.,12.0
1986-01-25 21:16:52.450 ,0,1,0.,12.0,0.,12.0,0.,12.0,0.,12.0
1986-01-25 21:17:04.450 ,0,1,0.,12.0,0.,12.0,0.,12.0,0.,12.0
1986-01-25 21:17:16.450 ,0,0,0.,12.0,0.,12.0,0.,12.0,0.,12.0
1986-01-25 21:17:28.450 ,0,0,0.,12.0,0.,12.0,0.,12.0,0.,12.0
1986-01-25 21:17:40.450 ,0,1,0.,12.0,0.,12.0,0.,12.0,0.,12.0
1986-01-25 21:17:52.450 ,0,1,0.,12.0,0.,12.0,0.,12.0,0.,12.0
1986-01-25 21:18:04.450 ,0,0,0.,12.0,0.,12.0,0.,12.0,0.,12.0
1986-01-25 21:18:16.450 ,0,0,0.,12.0,0.,12.0,0.,12.0,0.,12.0
1986-01-25 21:18:28.450 ,1,1,0.,12.0,0.,12.0,0.,12.0,0.,12.0
1986-01-25 21:18:40.450 ,1,1,0.,12.0,0.,12.0,0.,12.0,0.,12.0
1986-01-25 21:18:52.450 ,1,0,0.,12.0,0.,12.0,0.,12.0,0.,12.0
1986-01-25 21:19:04.450 ,1,0,0.,12.0,0.,12.0,0.,12.0,0.,12.0
1986-01-25 21:19:16.450 ,2,1,0.,12.0,0.,12.0,0.,12.0,0.,12.0
1986-01-25 21:19:28.450 ,2,1,0.,12.0,0.,12.0,0.,12.0,0.,12.0
1986-01-25 21:19:40.450 ,2,0,0.,12.0,0.,12.0,0.,12.0,0.,12.0
1986-01-25 21:19:52.450 ,2,0,0.,12.0,0.,12.0,0.,12.0,0.,12.0
1986-01-25 21:20:04.450 ,3,1,0.,12.0,0.,12.0,0.,12.0,0.,12.0
1986-01-25 21:20:16.450 ,3,1,0.,12.0,0.,12.0,0.,12.0,0.,12.0
1986-01-25 21:20:28.450 ,3,0,0.,12.0,0.,12.0,0.,12.0,0.,12.0
1986-01-25 21:20:40.450 ,3,0,0.,12.0,0.,12.0,0.,12.0,0.,12.0
1986-01-25 21:20:52.450 ,4,1,0.,12.0,0.,12.0,0.,12.0,0.,12.0
1986-01-25 21:21:04.450 ,4,1,0.,12.0,0.,12.0,0.,12.0,0.,12.0
1986-01-25 21:21:16.450 ,4,0,0.,12.0,0.,12.0,0.,12.0,0.,12.0
1986-01-25 21:21:28.450 ,4,0,0.,12.0,0.,12.0,0.,12.0,0.,12.0
1986-01-25 21:21:40.450 ,5,1,0.,12.0,0.,12.0,0.,12.0,0.,12.0
1986-01-25 21:21:52.450 ,5,1,0.,12.0,0.,12.0,0.,12.0,0.,12.0
1986-01-25 21:22:04.450 ,5,0,0.,12.0,0.,12.0,0.,12.0,0.,12.0
1986-01-25 21:22:16.450 ,5,0,0.,12.0,0.,12.0,0.,12.0,0.,12.0
1986-01-25 21:22:28.450 ,6,1,0.,12.0,0.,12.0,0.,12.0,0.,12.0
1986-01-25 21:22:40.450 ,6,1,0.,12.0,0.,12.0,0.,12.0,0.,12.0
1986-01-25 21:22:52.450 ,6,0,0.,12.0,0.,12.0,0.,12.0,0.,12.0
1986-01-25 21:23:04.450 ,6,0,0.,12.0,0.,12.0,0.,12.0,0.,12.0
1986-01-25 21:23:16.450 ,7,1,0.,12.0,0.,12.0,0.,12.0,0.,12.0
1986-01-25 21:23:28.450 ,7,1,0.,12.0,0.,12.0,0.,12.0,0.,12.0
1986-01-25 21:23:40.450 ,7,0,0.,12.0,0.,12.0,0.,12.0,0.,12.0
1986-01-25 21:23:52.450 ,7,0,0.,12.0,0.,12.0,0.,12.0,0.,12.0
1986-01-25 21:24:04.450 ,7,1,0.,12.0,0.,12.0,0.,12.0,0.,12.0
1986-01-25 21:24:16.450 ,7,1,0.,12.0,0.,12.0,0.,12.0,0.,12.0
1986-01-25 21:24:28.450 ,7,0,0.,12.0,0.,12.0,0.,12.0,0.,12.0
1986-01-25 21:24:40.450 ,7,0,0.,12.0,0.,12.0,0.,12.0,0.,12.0
1986-01-25 21:24:52.450 ,6,1,0.,12.0,0.,12.0,0.,12.0,0.,12.0
1986-01-25 21:25:04.450 ,6,1,0.,12.0,0.,12.0,0.,12.0,0.,12.0
1986-01-25 21:25:16.450 ,6,0,0.,12.0,0.,12.0,0.,12.0,0.,12.0
1986-01-25 21:25:28.450 ,6,0,0.,12.0,0.,12.0,0.,12.0,0.,12.0
1986-01-25 21:25:40.450 ,5,1,0.,12.0,0.,12.0,0.,12.0,0.,12.0
1986-01-25 21:25:52.450 ,5,1,0.,12.0,0.,12.0,0.,12.0,0.,12.0
1986-01-25 21:26:04.450 ,5,0,0.,12.0,0.,12.0,0.,12.0,0.,12.0
1986-01-25 21:26:16.450 ,5,0,0.,12.0,0.,12.0,0.,12.0,0.,12.0
1986-01-25 21:26:28.450 ,4,1,0.,12.0,0.,12.0,0.,12.0,0.,12.0
1986-01-25 21:26:40.450 ,4,1,0.,12.0,0.,12.0,0.,12.0,0.,12.0
1986-01-25 21:26:52.450 ,4,0,0.,12.0,0.,12.0,0.,12.0,0.,12.0
1986-01-25 21:27:04.450 ,4,0,0.,12.0,0.,12.0,0.,12.0,0.,12.0
1986-01-25 21:27:16.450 ,3,1,0.,12.0,0.,12.0,0.,12.0,0.,12.0
1986-01-25 21:27:28.450 ,3,1,0.,12.0,0.,12.0,0.,12.0,0.,12.0
1986-01-25 21:27:40.450 ,3,0,0.,12.0,0.,12.0,0.,12.0,0.,12.0
1986-01-25 21:27:52.450 ,3,0,0.,12.0,0.,12.0,0.,12.0,0.,12.0
1986-01-25 21:28:04.450 ,2,1,0.,12.0,0.,12.0,0.,12.0,0.,12.0
1986-01-25 21:28:16.450 ,2,1,0.,12.0,0.,12.0,0.,12.0,0.,12.0
1986-01-25 21:28:28.450 ,2,0,0.,12.0,0.,12.0,0.,12.0,0.,12.0
1986-01-25 21:28:40.450 ,2,0,0.,12.0,0.,12.0,0.,12.0,0.,12.0
1986-01-25 21:28:52.450 ,1,1,0.,12.0,0.,12.0,0.,12.0,0.,12.0
1986-01-25 21:29:04.450 ,1,1,0.,12.0,0.,12.0,0.,12.0,0.,12.0
1986-01-25 21:29:16.450 ,1,0,0.,12.0,0.,12.0,0.,12.0,0.,12.0
1986-01-25 21:29:28.450 ,1,0,0.,12.0,0.,12.0,0.,12.0,0.,12.0
1986-01-25 21:29:40.450 ,0,1,0.,12.0,0.,12.0,0.,12.0,0.,12.0
1986-01-25 21:29:52.450 ,0,1,0.,12.0,0.,12.0,0.,12.0,0.,12.0
1986-01-25 21:30:04.450 ,0,0,0.,12.0,0.,12.0,0.,12.0,0.,12.0
1986-01-25 21:30:16.450 ,0,0,0.,12.0,0.,12.0,0.,12.0,0.,12.0
1986-01-25 21:30:28.450 ,0,1,0.,12.0,0.,12.0,0.,12.0,0.,12.0
1986-01-25 21:30:40.450 ,0,1,0.,12.0,0.,12.0,0.,12.0,0.,12.0
1986-01-25 21:30:52.450 ,0,0,0.,12.0,0.,12.0,0.,12.0,0.,12.0
1986-01-25 21:31:04.450 ,0,0,0.,12.0,0.,12.0,0.,12.0,0.,12.0
1986-01-25 21:31:16.450 ,1,1,0.,12.0,0.,12.0,0.,12.0,0.,12.0
1986-01-25 21:31:28.450 ,1,1,0.,12.0,0.,12.0,0.,12.0,0.,12.0
1986-01-25 21:31:40.450 ,1,0,0.,12.0,0.,12.0,0.,12.0,0.,12.0
1986-01-25 21:31:52.450 ,1,0,0.,12.0,0.,12.0,0.,12.0,0.,12.0
1986-01-25 21:32:04.450 ,2,1,0.,12.0,0.,12.0,0.,12.0,0.,12.0
1986-01-25 21:32:16.450 ,2,1,0.,12.0,0.,12.0,0.,12.0,0.,12.0
1986-01-25 21:32:28.450 ,2,0,0.,12.0,0.,12.0,0.,12.0,0.,12.0
1986-01-25 21:32:40.450 ,2,0,0.,12.0,0.,12.0,0.,12.0,0.,12.0
1986-01-25 21:32:52.450 ,3,1,0.,12.0,0.,12.0,0.,12.0,0.,12.0
1986-01-25 21:33:04.450 ,3,1,0.,12.0,0.,12.0,0.,12.0,0.,12.0
1986-01-25 21:33:16.450 ,3,0,0.,12.0,0.,12.0,0.,12.0,0.,12.0
1986-01-25 21:33:28.450 ,3,0,0.,12.0,0.,12.0,0.,12.0,0.,12.0
1986-01-25 21:33:40.450 ,4,1,0.,12.0,0.,12.0,0.,12.0,0.,12.0
1986-01-25 21:33:52.450 ,4,1,0.,12.0,0.,12.0,0.,12.0,0.,12.0
1986-01-25 21:34:04.450 ,4,0,0.,12.0,0.,12.0,0.,12.0,0.,12.0
1986-01-25 21:34:16.450 ,4,0,0.,12.0,0.,12.0,0.,12.0,0.,12.0
1986-01-25 21:34:28.450 ,5,1,0.,12.0,0.,12.0,0.,12.0,0.,12.0
1986-01-25 21:34:40.450 ,5,1,0.,12.0,0.,12.0,0.,12.0,0.,12.0
1986-01-25 21:34:52.450 ,5,0,0.,12.0,0.,12.0,0.,12.0,0.,12.0
1986-01-25 21:35:04.450 ,5,0,0.,12.0,0.,12.0,0.,12.0,0.,12.0
1986-01-25 21:35:16.450 ,6,1,0.,12.0,0.,12.0,0.,12.0,0.,12.0
1986-01-25 21:35:28.450 ,6,1,0.,12.0,0.,12.0,0.,12.0,0.,12.0
1986-01-25 21:35:40.450 ,6,0,0.,12.0,0.,12.0,0.,12.0,0.,12.0
1986-01-25 21:35:52.450 ,6,0,0.,12.0,0.,12.0,0.,12.0,0.,12.0
1986-01-25 21:36:04.450 ,7,1,0.,12.0,0.,12.0,0.,12.0,0.,12.0
1986-01-25 21:36:16.450 ,7,1,0.,12.0,0.,12.0,0.,12.0,0.,12.0
1986-01-25 21:36:28.450 ,7,0,0.,12.0,0.,12.0,0.,12.0,0.,12.0
1986-01-25 21:36:40.450 ,7,0,0.,12.0,0.,12.0,0.,12.0,0.,12.0
1986-01-25 21:36:52.450 ,7,1,0.,12.0,0.,12.0,0.,12.0,0.,12.0
1986-01-25 21:37:04.450 ,7,1,0.,12.0,0.,12.0,0.,12.0,0.,12.0
1986-01-25 21:37:16.450 ,7,0,0.,12.0,0.,12.0,0.,12.0,0.,12.0
1986-01-25 21:37:28.450 ,7,0,0.,12.0,0.,12.0,0.,12.0,0.,12.0
1986-01-25 21:37:40.450 ,6,1,0.,12.0,0.,12.0,0.,12.0,0.,12.0
1986-01-25 21:37:52.450 ,6,1,0.,12.0,0.,12.0,0.,12.0,0.,12.0
1986-01-25 21:38:04.450 ,6,0,0.,12.0,0.,12.0,0.,12.0,0.,12.0
1986-01-25 21:38:16.450 ,6,0,0.,12.0,0.,12.0,0.,12.0,0.,12.0
1986-01-25 21:38:28.450 ,5,1,0.,12.0,0.,12.0,0.,12.0,0.,12.0
1986-01-25 21:38:40.450 ,5,1,0.,12.0,0.,12.0,0.,12.0,0.,12.0
1986-01-25 21:38:52.450 ,5,0,0.,12.0,0.,12.0,0.,12.0,0.,12.0
1986-01-25 21:39:04.450 ,5,0,0.,12.0,0.,12.0,0.,12.0,0.,12.0
1986-01-25 21:39:16.450 ,4,1,0.,12.0,0.,12.0,0.,12.0,0.,12.0
1986-01-25 21:39:28.450 ,4,1,0.,12.0,0.,12.0,0.,12.0,0.,12.0
1986-01-25 21:39:40.450 ,4,0,0.,12.0,0.,12.0,0.,12.0,0.,12.0
1986-01-25 21:39:52.450 ,4,0,0.,12.0,0.,12.0,0.,12.0,0.,12.0
1986-01-25 21:40:04.450 ,3,1,0.,12.0,0.,12.0,0.,12.0,0.,12.0
1986-01-25 21:40:16.450 ,3,1,0.,12.0,0.,12.0,0.,12.0,0.,12.0
1986-01-25 21:40:28.450 ,3,0,0.,12.0,0.,12.0,0.,12.0,0.,12.0
1986-01-25 21:40:40.450 ,3,0,0.,12.0,0.,12.0,0.,12.0,0.,12.0
1986-01-25 21:40:52.450 ,2,1,0.,12.0,0.,12.0,0.,12.0,0.,12.0
1986-01-25 21:41:04.450 ,2,1,0.,12.0,0.,12.0,0.,12.0,0.,12.0
1986-01-25 21:41:16.450 ,2,0,0.,12.0,0.,12.0,0.,12.0,0.,12.0
1986-01-25 21:41:28.450 ,2,0,0.,12.0,0.,12.0,0.,12.0,0.,12.0
1986-01-25 21:41:40.450 ,1,1,0.,12.0,0.,12.0,0.,12.0,0.,12.0
1986-01-25 21:41:52.450 ,1,1,0.,12.0,0.,12.0,0.,12.0,0.,12.0
1986-01-25 21:42:04.450 ,1,0,0.,12.0,0.,12.0,0.,12.0,0.,12.0
1986-01-25 21:42:16.450 ,1,0,0.,12.0,0.,12.0,0.,12.0,0.,12.0
1986-01-25 21:42:28.450 ,0,1,0.,12.0,0.,12.0,0.,12.0,0.,12.0
1986-01-25 21:42:40.450 ,0,1,0.,12.0,0.,12.0,0.,12.0,0.,12.0
1986-01-25 21:42:52.450 ,0,0,0.,12.0,0.,12.0,0.,12.0,0.,12.0
1986-01-25 21:43:04.450 ,0,0,0.,12.0,0.,12.0,0.,12.0,0.,12.0
1986-01-25 21:43:16.450 ,0,1,0.,12.0,0.,12.0,0.,12.0,0.,12.0
1986-01-25 21:43:28.450 ,0,1,0.,12.0,0.,12.0,0.,12.0,0.,12.0
1986-01-25 21:43:40.450 ,0,0,0.,12.0,0.,12.0,0.,12.0,0.,12.0
1986-01-25 21:43:52.450 ,0,0,0.,12.0,0.,12.0,0.,12.0,0.,12.0
1986-01-25 21:44:04.450 ,1,1,0.,12.0,0.,12.0,0.,12.0,0.,12.0
1986-01-25 21:44:16.450 ,1,1,0.,12.0,0.,12.0,0.,12.0,0.,12.0
1986-01-25 21:44:28.450 ,1,0,0.,12.0,0.,12.0,0.,12.0,0.,12.0
1986-01-25 21:44:40.450 ,1,0,0.,12.0,0.,12.0,0.,12.0,0.,12.0
1986-01-25 21:44:52.450 ,2,1,0.,12.0,0.,12.0,0.,12.0,0.,12.0
1986-01-25 21:45:04.450 ,2,1,0.,12.0,0.,12.0,0.,12.0,0.,12.0
1986-01-25 21:45:16.450 ,2,0,0.,12.0,0.,12.0,0.,12.0,0.,12.0
1986-01-25 21:45:28.450 ,2,0,0.,12.0,0.,12.0,0.,12.0,0.,12.0
1986-01-25 21:45:40.450 ,3,1,0.,12.0,0.,12.0,0.,12.0,0.,12.0
1986-01-25 21:45:52.450 ,3,1,0.,12.0,0.,12.0,0.,12.0,0.,12.0
1986-01-25 21:46:04.450 ,3,0,0.,12.0,0.,12.0,0.,12.0,0.,12.0
1986-01-25 21:46:16.450 ,3,0,0.,12.0,0.,12.0,0.,12.0,0.,12.0
1986-01-25 21:46:28.450 ,4,1,0.,12.0,0.,12.0,0.,12.0,0.,12.0
1986-01-25 21:46:40.450 ,4,1,0.,12.0,0.,12.0,0.,12.0,0.,12.0
1986-01-25 21:46:52.450 ,4,0,0.,12.0,0.,12.0,0.,12.0,0.,12.0
1986-01-25 21:47:04.450 ,4,0,0.,12.0,0.,12.0,0.,12.0,0.,12.0
1986-01-25 21:47:16.450 ,5,1,0.,12.0,0.,12.0,0.,12.0,0.,12.0
1986-01-25 21:47:28.450 ,5,1,0.,12.0,0.,12.0,0.,12.0,0.,12.0
1986-01-25 21:47:40.450 ,5,0,0.,12.0,0.,12.0,0.,12.0,0.,12.0
1986-01-25 21:47:52.450 ,5,0,0.,12.0,0.,12.0,0.,12.0,0.,12.0
1986-01-25 21:48:04.450 ,6,1,0.,12.0,0.,12.0,0.,12.0,0.,12.0
1986-01-25 21:48:16.450 ,6,1,0.,12.0,0.,12.0,0.,12.0,0.,12.0
1986-01-25 21:48:28.450 ,6,0,0.,12.0,0.,12.0,0.,12.0,0.,12.0
1986-01-25 21:48:40.450 ,6,0,0.,12.0,0.,12.0,0.,12.0,0.,12.0
1986-01-25 21:48:52.450 ,7,1,0.,12.0,0.,12.0,0.,12.0,0.,12.0
1986-01-25 21:49:04.450 ,7,1,0.,12.0,0.,12.0,0.,12.0,0.,12.0
1986-01-25 21:49:16.450 ,7,0,0.,12.0,0.,12.0,0.,12.0,0.,12.0
1986-01-25 21:49:28.450 ,7,0,0.,12.0,0.,12.0,0.,12.0,0.,12.0
1986-01-25 21:49:40.450 ,7,1,0.,12.0,0.,12.0,0.,12.0,0.,12.0
1986-01-25 21:49:52.450 ,7,1,0.,12.0,0.,12.0,0.,12.0,0.,12.0
1986-01-25 21:50:04.450 ,7,0,0.,12.0,0.,12.0,0.,12.0,0.,12.0
1986-01-25 21:50:16.450 ,7,0,0.,12.0,0.,12.0,0.,12.0,0.,12.0
1986-01-25 21:50:28.450 ,6,1,0.,12.0,0.,12.0,0.,12.0,0.,12.0
1986-01-25 21:50:40.450 ,6,1,0.,12.0,0.,12.0,0.,12.0,0.,12.0
1986-01-25 21:50:52.450 ,6,0,0.,12.0,0.,12.0,0.,12.0,0.,12.0
1986-01-25 21:51:04.450 ,6,0,0.,12.0,0.,12.0,0.,12.0,0.,12.0
1986-01-25 21:51:16.450 ,5,1,0.,12.0,0.,12.0,0.,12.0,0.,12.0
1986-01-25 21:51:28.450 ,5,1,0.,12.0,0.,12.0,0.,12.0,0.,12.0
1986-01-25 21:51:40.450 ,5,0,0.,12.0,0.,12.0,0.,12.0,0.,12.0
1986-01-25 21:51:52.450 ,5,0,0.,12.0,0.,12.0,0.,12.0,0.,12.0
1986-01-25 21:52:04.450 ,4,1,0.,12.0,0.,12.0,0.,12.0,0.,12.0
1986-01-25 21:52:16.450 ,4,1,0.,12.0,0.,12.0,0.,12.0,0.,12.0
1986-01-25 21:52:28.450 ,4,0,0.,12.0,0.,12.0,0.,12.0,0.,12.0
1986-01-25 21:52:40.450 ,4,0,0.,12.0,0.,12.0,0.,12.0,0.,12.0
1986-01-25 21:52:52.450 ,3,1,0.,12.0,0.,12.0,0.,12.0,0.,12.0
1986-01-25 21:53:04.450 ,3,1,0.,12.0,0.,12.0,0.,12.0,0.,12.0
1986-01-25 21:53:16.450 ,3,0,0.,12.0,0.,12.0,0.,12.0,0.,12.0
1986-01-25 21:53:28.450 ,3,0,0.,12.0,0.,12.0,0.,12.0,0.,12.0
1986-01-25 21:53:40.450 ,2,1,0.,12.0,0.,12.0,0.,12.0,0.,12.0
1986-01-25 21:53:52.450 ,2,1,0.,12.0,0.,12.0,0.,12.0,0.,12.0
1986-01-25 21:54:04.450 ,2,0,0.,12.0,0.,12.0,0.,12.0,0.,12.0
1986-01-25 21:54:16.450 ,2,0,0.,12.0,0.,12.0,0.,12.0,0.,12.0
1986-01-25 21:54:28.450 ,1,1,0.,12.0,0.,12.0,0.,12.0,0.,12.0
1986-01-25 21:54:40.450 ,1,1,0.,12.0,0.,12.0,0.,12.0,0.,12.0
1986-01-25 21:54:52.450 ,1,0,0.,12.0,0.,12.0,0.,12.0,0.,12.0
1986-01-25 21:55:04.450 ,1,0,0.,12.0,0.,12.0,0.,12.0,0.,12.0
1986-01-25 21:55:16.450 ,0,1,0.,12.0,0.,12.0,0.,12.0,0.,12.0
1986-01-25 21:55:28.450 ,0,1,0.,12.0,0.,12.0,0.,12.0,0.,12.0
1986-01-25 21:55:40.450 ,0,0,0.,12.0,0.,12.0,0.,12.0,0.,12.0
1986-01-25 21:55:52.450 ,0,0,0.,12.0,0.,12.0,0.,12.0,0.,12.0
1986-01-25 21:56:04.450 ,0,1,0.,12.0,0.,12.0,0.,12.0,0.,12.0
1986-01-25 21:56:16.450 ,0,1,0.,12.0,0.,12.0,0.,12.0,0.,12.0
1986-01-25 21:56:28.450 ,0,0,0.,12.0,0.,12.0,0.,12.0,0.,12.0
1986-01-25 21:56:40.450 ,0,0,0.,12.0,0.,12.0,0.,12.0,0.,12.0
1986-01-25 21:56:52.450 ,1,1,0.,12.0,0.,12.0,0.,12.0,0.,12.0
1986-01-25 21:57:04.450 ,1,1,0.,12.0,0.,12.0,0.,12.0,0.,12.0
1986-01-25 21:57:16.450 ,1,0,0.,12.0,0.,12.0,0.,12.0,0.,12.0
1986-01-25 21:57:28.450 ,1,0,0.,12.0,0.,12.0,0.,12.0,0.,12.0
1986-01-25 21:57:40.450 ,2,1,0.,12.0,0.,12.0,0.,12.0,0.,12.0
1986-01-25 21:57:52.450 ,2,1,0.,12.0,0.,12.0,0.,12.0,0.,12.0
1986-01-25 21:58:04.450 ,2,0,0.,12.0,0.,12.0,0.,12.0,0.,12.0
1986-01-25 21:58:16.450 ,2,0,0.,12.0,0.,12.0,0.,12.0,0.,12.0
1986-01-25 21:58:28.450 ,3,1,0.,12.0,0.,12.0,0.,12.0,0.,12.0
1986-01-25 21:58:40.450 ,3,1,0.,12.0,0.,12.0,0.,12.0,0.,12.0
1986-01-25 21:58:52.450 ,3,0,0.,12.0,0.,12.0,0.,12.0,0.,12.0
1986-01-25 21:59:04.450 ,3,0,0.,12.0,0.,12.0,0.,12.0,0.,12.0
1986-01-25 21:59:16.450 ,4,1,0.,12.0,0.,12.0,0.,12.0,0.,12.0
1986-01-25 21:59:28.450 ,4,1,0.,12.0,0.,12.0,0.,12.0,0.,12.0
1986-01-25 21:59:40.450 ,4,0,0.,12.0,0.,12.0,0.,12.0,0.,12.0
1986-01-25 21:59:52.450 ,4,0,0.,12.0,0.,12.0,0.,12.0,0.,12.0
1986-01-25 22:00:04.450 ,5,1,0.,12.0,0.,12.0,0.,12.0,0.,12.0
1986-01-25 22:00:16.450 ,5,1,0.,12.0,0.,12.0,0.,12.0,0.,12.0
1986-01-25 22:00:28.450 ,5,0,0.,12.0,0.,12.0,0.,12.0,0.,12.0
1986-01-25 22:00:40.450 ,5,0,0.,12.0,0.,12.0,0.,12.0,0.,12.0
1986-01-25 22:00:52.450 ,6,1,0.,12.0,0.,12.0,0.,12.0,0.,12.0
1986-01-25 22:01:04.450 ,6,1,0.,12.0,0.,12.0,0.,12.0,0.,12.0
1986-01-25 22:01:16.450 ,6,0,0.,12.0,0.,12.0,0.,12.0,0.,12.0
1986-01-25 22:01:28.450 ,6,0,0.,12.0,0.,12.0,0.,12.0,0.,12.0
1986-01-25 22:01:40.450 ,7,1,0.,12.0,0.,12.0,0.,12.0,0.,12.0
1986-01-25 22:01:52.450 ,7,1,0.,12.0,0.,12.0,0.,12.0,0.,12.0
1986-01-25 22:02:04.450 ,7,0,0.,12.0,0.,12.0,0.,12.0,0.,12.0
1986-01-25 22:02:16.450 ,7,0,0.,12.0,0.,12.0,0.,12.0,0.,12.0
1986-01-25 22:02:28.450 ,7,1,0.,12.0,0.,12.0,0.,12.0,0.,12.0
1986-01-25 22:02:40.450 ,7,1,0.,12.0,0.,12.0,0.,12.0,0.,12.0
1986-01-25 22:02:52.450 ,7,0,0.,12.0,0.,12.0,0.,12.0,0.,12.0
1986-01-25 22:03:04.450 ,7,0,0.,12.0,0.,12.0,0.,12.0,0.,12.0
1986-01-25 22:03:16.450 ,6,1,0.,12.0,0.,12.0,0.,12.0,0.,12.0
1986-01-25 22:03:28.450 ,6,1,0.,12.0,0.,12.0,0.,12.0,0.,12.0
1986-01-25 22:03:40.450 ,6,0,0.,12.0,0.,12.0,0.,12.0,0.,12.0
1986-01-25 22:03:52.450 ,6,0,0.,12.0,0.,12.0,0.,12.0,0.,12.0
1986-01-25 22:04:04.450 ,5,1,0.,12.0,0.,12.0,0.,12.0,0.,12.0
1986-01-25 22:04:16.450 ,5,1,0.,12.0,0.,12.0,0.,12.0,0.,12.0
1986-01-25 22:04:28.450 ,5,0,0.,12.0,0.,12.0,0.,12.0,0.,12.0
1986-01-25 22:04:40.450 ,5,0,0.,12.0,0.,12.0,0.,12.0,0.,12.0
1986-01-25 22:04:52.450 ,4,1,0.,12.0,0.,12.0,0.,12.0,0.,12.0
1986-01-25 22:05:04.450 ,4,1,0.,12.0,0.,12.0,0.,12.0,0.,12.0
1986-01-25 22:05:16.450 ,4,0,0.,12.0,0.,12.0,0.,12.0,0.,12.0
1986-01-25 22:05:28.450 ,4,0,0.,12.0,0.,12.0,0.,12.0,0.,12.0
1986-01-25 22:05:40.450 ,3,1,0.,12.0,0.,12.0,0.,12.0,0.,12.0
1986-01-25 22:05:52.450 ,3,1,0.,12.0,0.,12.0,0.,12.0,0.,12.0
1986-01-25 22:06:04.450 ,3,0,0.,12.0,0.,12.0,0.,12.0,0.,12.0
1986-01-25 22:06:16.450 ,3,0,0.,12.0,0.,12.0,0.,12.0,0.,12.0
1986-01-25 22:06:28.450 ,2,1,0.,12.0,0.,12.0,0.,12.0,0.,12.0
1986-01-25 22:06:40.450 ,2,1,0.,12.0,0.,12.0,0.,12.0,0.,12.0
1986-01-25 22:06:52.450 ,2,0,0.,12.0,0.,12.0,0.,12.0,0.,12.0
1986-01-25 22:07:04.450 ,2,0,0.,12.0,0.,12.0,0.,12.0,0.,12.0
1986-01-25 22:07:16.450 ,1,1,0.,12.0,0.,12.0,0.,12.0,0.,12.0
1986-01-25 22:07:28.450 ,1,1,0.,12.0,0.,12.0,0.,12.0,0.,12.0
1986-01-25 22:07:40.450 ,1,0,0.,12.0,0.,12.0,0.,12.0,0.,12.0
1986-01-25 22:07:52.450 ,1,0,0.,12.0,0.,12.0,0.,12.0,0.,12.0
1986-01-25 22:08:04.450 ,0,1,0.,12.0,0.,12.0,0.,12.0,0.,12.0
1986-01-25 22:08:16.450 ,0,1,0.,12.0,0.,12.0,0.,12.0,0.,12.0
1986-01-25 22:08:28.450 ,0,0,0.,12.0,0.,12.0,0.,12.0,0.,12.0
1986-01-25 22:08:40.450 ,0,0,0.,12.0,0.,12.0,0.,12.0,0.,12.0
1986-01-25 22:08:52.450 ,0,1,0.,12.0,0.,12.0,0.,12.0,0.,12.0
1986-01-25 22:09:04.450 ,0,1,0.,12.0,0.,12.0,0.,12.0,0.,12.0
1986-01-25 22:09:16.450 ,0,0,0.,12.0,0.,12.0,0.,12.0,0.,12.0
1986-01-25 22:09:28.450 ,0,0,0.,12.0,0.,12.0,0.,12.0,0.,12.0
1986-01-25 22:09:40.450 ,1,1,0.,12.0,0.,12.0,0.,12.0,0.,12.0
1986-01-25 22:09:52.450 ,1,1,0.,12.0,0.,12.0,0.,12.0,0.,12.0
1986-01-25 22:10:04.450 ,1,0,0.,12.0,0.,12.0,0.,12.0,0.,12.0
1986-01-25 22:10:16.450 ,1,0,0.,12.0,0.,12.0,0.,12.0,0.,12.0
1986-01-25 22:10:28.450 ,2,1,,0,,0,,0,,0
1986-01-25 22:10:40.450 ,2,1,0.,12.0,0.,12.0,0.,12.0,0.,12.0
1986-01-25 22:10:52.450 ,2,0,0.,12.0,0.,12.0,0.,12.0,0.,12.0
1986-01-25 22:11:04.450 ,2,0,0.,12.0,0.,12.0,0.,12.0,0.,12.0
1986-01-25 22:11:16.450 ,3,1,0.,12.0,0.,12.0,0.,12.0,0.,12.0
1986-01-25 22:11:28.450 ,3,1,0.,12.0,0.,12.0,0.,12.0,0.,12.0
1986-01-25 22:11:40.450 ,3,0,0.,12.0,0.,12.0,0.,12.0,0.,12.0
1986-01-25 22:11:52.450 ,3,0,0.,12.0,0.,12.0,0.,12.0,0.,12.0
1986-01-25 22:12:04.450 ,4,1,0.,12.0,0.,12.0,0.,12.0,0.,12.0
1986-01-25 22:12:16.450 ,4,1,0.,12.0,0.,12.0,0.,12.0,0.,12.0
1986-01-25 22:12:28.450 ,4,0,0.,12.0,0.,12.0,0.,12.0,0.,12.0
1986-01-25 22:12:40.450 ,4,0,0.,12.0,0.,12.0,0.,12.0,0.,12.0
1986-01-25 22:12:52.450 ,5,1,0.,12.0,0.,12.0,0.,12.0,0.,12.0
1986-01-25 22:13:04.450 ,5,1,0.,12.0,0.,12.0,0.,12.0,0.,12.0
1986-01-25 22:13:16.450 ,5,0,0.,12.0,0.,12.0,0.,12.0,0.,12.0
1986-01-25 22:13:28.450 ,5,0,0.,12.0,0.,12.0,0.,12.0,0.,12.0
1986-01-25 22:13:40.450 ,6,1,0.,12.0,0.,12.0,0.,12.0,0.,12.0
1986-01-25 22:13:52.450 ,6,1,0.,12.0,0.,12.0,0.,12.0,0.,12.0
1986-01-25 22:14:04.450 ,6,0,0.,12.0,0.,12.0,0.,12.0,0.,12.0
1986-01-25 22:14:16.450 ,6,0,0.,12.0,0.,12.0,0.,12.0,0.,12.0
1986-01-25 22:14:28.450 ,7,1,0.,12.0,0.,12.0,0.,12.0,0.,12.0
1986-01-25 22:14:40.450 ,7,1,0.,12.0,0.,12.0,0.,12.0,0.,12.0
1986-01-25 22:14:52.450 ,7,0,0.,12.0,0.,12.0,0.,12.0,0.,12.0
1986-01-25 22:15:04.450 ,7,0,0.,12.0,0.,12.0,0.,12.0,0.,12.0
1986-01-25 22:15:16.450 ,7,1,0.,12.0,0.,12.0,0.,12.0,0.,12.0
1986-01-25 22:15:28.450 ,7,1,0.,12.0,0.,12.0,0.,12.0,0.,12.0
1986-01-25 22:15:40.450 ,7,0,0.,12.0,0.,12.0,0.,12.0,0.,12.0
1986-01-25 22:15:52.450 ,7,0,0.,12.0,0.,12.0,0.,12.0,0.,12.0
1986-01-25 22:16:04.450 ,6,1,0.,12.0,0.,12.0,0.,12.0,0.,12.0
1986-01-25 22:16:16.450 ,6,1,0.,12.0,0.,12.0,0.,12.0,0.,12.0
1986-01-25 22:16:28.450 ,6,0,0.,12.0,0.,12.0,0.,12.0,0.,12.0
1986-01-25 22:16:40.450 ,6,0,0.,12.0,0.,12.0,0.,12.0,0.,12.0
1986-01-25 22:16:52.450 ,5,1,0.,12.0,0.,12.0,0.,12.0,0.,12.0
1986-01-25 22:17:04.450 ,5,1,0.,12.0,0.,12.0,0.,12.0,0.,12.0
1986-01-25 22:17:16.450 ,5,0,0.,12.0,0.,12.0,0.,12.0,0.,12.0
1986-01-25 22:17:28.450 ,5,0,0.,12.0,0.,12.0,0.,12.0,0.,12.0